Location: Peterborough
(44.3091°N, 78.3197°W)
Time: 04:58:01
(UTC-04:00)

Tiros 1 despin weight - Pass Details

Date: 24 March 2023
Orbit: 586 x 632 km, 48.2° (Epoch: 08 June)

Event Time Altitude Azimuth Distance (km) Brightness Sun altitude
Rises 00:46:39 0° 271° (W) 2,817 - -43.8°
Reaches altitude 10° 00:48:58 10° 276° (W) 1,923 - -43.9°
Maximum altitude 00:53:16 53° 353° (N) 740 - -44.0°
Drops below altitude 10° 00:57:39 10° 71° (ENE) 1,952 - -44.1°
Sets 01:00:01 0° 76° (ENE) 2,865 - -44.2°
